When you browse on this site, cookies collect data to enhance your experience and personalize the content and advertising you see.
Visit our Privacy Policy to learn more. By continuing to use the site, you agree to this use of cookies and data.
  • In Hungary
  • List of Countries
  • For 7 days
  • Water Temperature
  • Satellite Maps
  • Weather Map
  • News
  • Weather Widgets
  • user-avatar
    Login

    Hourly Weather Milsko

    Today, 24 January, Thursday

    Time Temperature Precipitation Wind Pressure Humidity
    00:00 -8°C° 0 mm 4 mps 749 mmHg 71%
    01:00 -7°C° 0 mm 3 mps 750 mmHg 72%
    02:00 -7°C° 0 mm 3 mps 750 mmHg 73%
    03:00 -9°C° 0 mm 4 mps 750 mmHg 74%
    04:00 -9°C° 0 mm 4 mps 750 mmHg 74%
    05:00 -9°C° 0 mm 4 mps 750 mmHg 75%
    06:00 -9°C° 0 mm 4 mps 751 mmHg 75%
    07:00 -9°C° 0 mm 4 mps 751 mmHg 75%
    08:00 -9°C° 0 mm 4 mps 751 mmHg 73%
    09:00 -8°C° 0 mm 4 mps 751 mmHg 70%
    10:00 -8°C° 0 mm 4 mps 752 mmHg 67%
    11:00 -7°C° 0 mm 4 mps 751 mmHg 65%
    12:00 -7°C° 0 mm 4 mps 751 mmHg 63%
    13:00 -5°C° 0 mm 4 mps 751 mmHg 60%
    14:00 -7°C° 0 mm 4 mps 752 mmHg 61%
    15:00 -7°C° 0 mm 4 mps 752 mmHg 62%
    16:00 -7°C° 0 mm 4 mps 752 mmHg 63%
    17:00 -6°C° 0 mm 3 mps 752 mmHg 64%
    18:00 -6°C° 0 mm 3 mps 752 mmHg 65%
    19:00 -6°C° 0 mm 3 mps 752 mmHg 65%
    20:00 -7°C° 0 mm 3 mps 752 mmHg 66%
    21:00 -7°C° 0 mm 3 mps 753 mmHg 67%
    22:00 -7°C° 0 mm 3 mps 753 mmHg 68%
    23:00 -6°C° 0 mm 2 mps 753 mmHg 69%

    Tomorrow, 25 January, Friday

    Time Temperature Precipitation Wind Pressure Humidity
    00:00 -6°C° 0 mm 2 mps 753 mmHg 71%
    01:00 -7°C° 0 mm 2 mps 753 mmHg 72%
    02:00 -7°C° 0 mm 2 mps 753 mmHg 73%
    03:00 -7°C° 0 mm 2 mps 753 mmHg 75%
    04:00 -7°C° 0 mm 2 mps 753 mmHg 76%
    05:00 -6°C° 0 mm 1 mps 753 mmHg 77%
    06:00 -6°C° 0 mm 1 mps 753 mmHg 78%
    07:00 -7°C° 0 mm 1 mps 753 mmHg 79%
    08:00 -6°C° 0 mm 1 mps 754 mmHg 77%
    09:00 -6°C° 0 mm 1 mps 754 mmHg 74%
    10:00 -5°C° 0 mm 0 mps 754 mmHg 71%
    11:00 -4°C° 0 mm 1 mps 754 mmHg 68%
    12:00 -3°C° 0 mm 1 mps 754 mmHg 65%
    13:00 -4°C° 0 mm 2 mps 754 mmHg 61%
    14:00 -4°C° 0 mm 2 mps 754 mmHg 61%
    15:00 -4°C° 0 mm 2 mps 754 mmHg 61%
    16:00 -4°C° 0 mm 2 mps 754 mmHg 60%
    17:00 -5°C° 0 mm 2 mps 754 mmHg 62%
    18:00 -5°C° 0 mm 2 mps 754 mmHg 64%
    19:00 -5°C° 0 mm 2 mps 754 mmHg 66%
    20:00 -6°C° 0 mm 2 mps 754 mmHg 67%
    21:00 -6°C° 0 mm 2 mps 754 mmHg 68%
    22:00 -6°C° 0 mm 2 mps 754 mmHg 69%
    23:00 -7°C° 0 mm 3 mps 753 mmHg 67%

    Day after tomorrow, 26 January, Saturday

    Time Temperature Precipitation Wind Pressure Humidity
    00:00 -6°C° 0 mm 3 mps 753 mmHg 65%
    01:00 -6°C° 0 mm 3 mps 752 mmHg 63%
    02:00 -7°C° 0.1 mm 4 mps 751 mmHg 68%
    03:00 -5°C° 0.1 mm 4 mps 750 mmHg 72%
    04:00 -5°C° 0.1 mm 4 mps 749 mmHg 76%
    05:00 -5°C° 0.4 mm 5 mps 748 mmHg 81%
    06:00 -5°C° 0.4 mm 5 mps 747 mmHg 85%
    07:00 -4°C° 0.4 mm 5 mps 746 mmHg 90%
    08:00 -2°C° 1.1 mm 5 mps 746 mmHg 90%
    09:00 -1°C° 1.1 mm 5 mps 745 mmHg 90%
    10:00 -1°C° 1.1 mm 5 mps 744 mmHg 90%
    11:00 0°C° 0.6 mm 4 mps 744 mmHg 92%
    12:00 +1°C° 0.6 mm 3 mps 744 mmHg 94%
    13:00 +1°C° 0.6 mm 3 mps 744 mmHg 96%
    14:00 +1°C° 0 mm 3 mps 744 mmHg 96%
    15:00 +2°C° 0 mm 2 mps 744 mmHg 96%
    16:00 +2°C° 0 mm 2 mps 744 mmHg 96%
    17:00 +2°C° 0 mm 2 mps 744 mmHg 96%
    18:00 +1°C° 0 mm 2 mps 745 mmHg 97%
    19:00 +1°C° 0 mm 2 mps 745 mmHg 97%
    20:00 +1°C° 0.1 mm 2 mps 745 mmHg 97%
    21:00 +1°C° 0.1 mm 2 mps 745 mmHg 97%
    22:00 +1°C° 0.1 mm 2 mps 745 mmHg 97%
    23:00 +1°C° 0.2 mm 2 mps 745 mmHg 97%

    27 January, Sunday

    Time Temperature Precipitation Wind Pressure Humidity
    00:00 +1°C° 0.2 mm 2 mps 745 mmHg 98%
    01:00 +2°C° 0.2 mm 1 mps 745 mmHg 98%
    02:00 +1°C° 0.2 mm 2 mps 745 mmHg 98%
    03:00 +1°C° 0.2 mm 2 mps 744 mmHg 98%
    04:00 +2°C° 0.2 mm 2 mps 744 mmHg 98%
    05:00 +2°C° 0.3 mm 2 mps 743 mmHg 98%
    06:00 +2°C° 0.3 mm 2 mps 743 mmHg 97%
    07:00 +1°C° 0.3 mm 3 mps 742 mmHg 97%
    08:00 +1°C° 0.1 mm 3 mps 742 mmHg 95%
    09:00 +2°C° 0.1 mm 3 mps 742 mmHg 93%
    10:00 +2°C° 0.1 mm 3 mps 741 mmHg 91%
    11:00 +2°C° 0 mm 3 mps 741 mmHg 90%
    12:00 +3°C° 0 mm 3 mps 740 mmHg 90%
    13:00 +3°C° 0 mm 3 mps 740 mmHg 89%
    14:00 +3°C° 0.1 mm 3 mps 739 mmHg 90%
    15:00 +2°C° 0.1 mm 3 mps 739 mmHg 90%
    16:00 +2°C° 0.1 mm 3 mps 739 mmHg 90%
    17:00 +2°C° 0 mm 3 mps 738 mmHg 91%
    18:00 +2°C° 0 mm 3 mps 738 mmHg 91%
    19:00 +1°C° 0 mm 3 mps 738 mmHg 91%
    20:00 +1°C° 0.3 mm 3 mps 738 mmHg 91%
    21:00 +1°C° 0.3 mm 3 mps 738 mmHg 92%
    22:00 +1°C° 0.3 mm 3 mps 737 mmHg 92%
    23:00 +1°C° 0 mm 3 mps 737 mmHg 92%

    28 January, Monday

    Time Temperature Precipitation Wind Pressure Humidity
    00:00 +1°C° 0 mm 3 mps 737 mmHg 91%
    01:00 0°C° 0 mm 3 mps 737 mmHg 91%
    02:00 0°C° 0 mm 3 mps 736 mmHg 91%
    03:00 +1°C° 0 mm 2 mps 736 mmHg 91%
    04:00 +1°C° 0 mm 2 mps 736 mmHg 91%
    05:00 +1°C° 0 mm 2 mps 735 mmHg 91%
    06:00 +1°C° 0 mm 2 mps 735 mmHg 91%
    07:00 -1°C° 0 mm 2 mps 735 mmHg 91%
    08:00 +1°C° 0 mm 2 mps 735 mmHg 90%
    09:00 +2°C° 0 mm 2 mps 736 mmHg 89%
    10:00 +1°C° 0 mm 3 mps 736 mmHg 87%
    11:00 +2°C° 0 mm 3 mps 735 mmHg 86%
    12:00 +3°C° 0 mm 3 mps 735 mmHg 84%
    13:00 +4°C° 0 mm 3 mps 735 mmHg 82%
    14:00 +3°C° 0 mm 3 mps 735 mmHg 84%
    15:00 +4°C° 0 mm 2 mps 735 mmHg 86%
    16:00 +3°C° 0 mm 2 mps 735 mmHg 89%
    17:00 +3°C° 0 mm 2 mps 735 mmHg 90%
    18:00 +2°C° 0 mm 2 mps 736 mmHg 91%
    19:00 +1°C° 0 mm 2 mps 736 mmHg 93%
    20:00 +1°C° 0.1 mm 3 mps 736 mmHg 94%
    21:00 +1°C° 0.1 mm 3 mps 737 mmHg 95%
    22:00 +1°C° 0.1 mm 3 mps 737 mmHg 96%
    23:00 0°C° 0.2 mm 4 mps 738 mmHg 94%

    29 January, Tuesday

    Time Temperature Precipitation Wind Pressure Humidity
    00:00 0°C° 0.2 mm 5 mps 738 mmHg 92%
    01:00 -1°C° 0.2 mm 6 mps 739 mmHg 91%
    02:00 -1°C° 0.3 mm 6 mps 740 mmHg 90%
    03:00 -2°C° 0.3 mm 6 mps 741 mmHg 89%
    04:00 -2°C° 0.3 mm 6 mps 741 mmHg 89%
    05:00 -2°C° 0.2 mm 6 mps 742 mmHg 86%
    06:00 -3°C° 0.2 mm 6 mps 743 mmHg 84%
    07:00 -3°C° 0.2 mm 6 mps 744 mmHg 82%
    08:00 -3°C° 0 mm 6 mps 745 mmHg 83%
    09:00 -3°C° 0 mm 6 mps 745 mmHg 83%
    10:00 -2°C° 0 mm 5 mps 746 mmHg 84%
    11:00 -1°C° 0 mm 5 mps 746 mmHg 83%
    12:00 -1°C° 0 mm 5 mps 746 mmHg 81%
    13:00 -1°C° 0 mm 6 mps 746 mmHg 79%
    14:00 0°C° 0 mm 5 mps 746 mmHg 80%
    15:00 -1°C° 0 mm 4 mps 746 mmHg 81%
    16:00 -1°C° 0 mm 4 mps 746 mmHg 81%
    17:00 -2°C° 0 mm 4 mps 746 mmHg 82%
    18:00 -2°C° 0 mm 4 mps 746 mmHg 82%
    19:00 -3°C° 0 mm 4 mps 746 mmHg 83%
    20:00 -3°C° 0 mm 4 mps 746 mmHg 83%
    21:00 -2°C° 0 mm 4 mps 746 mmHg 83%
    22:00 -2°C° 0 mm 4 mps 746 mmHg 83%
    23:00 -2°C° 0 mm 4 mps 746 mmHg 83%
    Show more